Find Starlink 33834

NORAD ID: 63586 Int'l Des: 2025-076 Owner: SPXS Country: US Constellation: starlink operational
LEOCIRCULAR

リアルタイム位置

3D地球を読み込み中...

Starlink 33834について

説明を読み込み中...

次回通過

Passes for default location (London). Set your location on the main map for personalized predictions.

高度履歴

Loading altitude history...

軌道要素

1 63586U 25076T 26125.66471171 .00024617 00000-0 90016-3 0 9996
2 63586 42.9998 359.9572 0001803 276.8976 83.1671 15.27613769 60546
Epoch: May 5, 2026 • Age: 34 hours

現在のステータス

高度 493.4 km
速度 7.62 km/s
衛星直下点 -38.91°S, 23.29°W
打ち上げ日 Apr 14, 2025
運用期間 1 years
タイプ internet

技術仕様

分類 Payload
質量 575.00 kg
乾燥質量 530.00 kg
総質量 575.00 kg
長さ 0.30 m
直径 4.10 m
スパン 29.00 m
形状 Box + pan
製造者 SPXS
バスタイプ Starlink V2MO
フェーズステータス In Orbit
所有者/国 SPXS/US

Most Searched